Location: Westminster
(33.3626°N, 96.4619°W)
Time: 07:29:51
(UTC+00:00)

Cosmos 1515 Rocket - Pass Details

Date: 03 July 2022
Orbit: 604 x 630 km, 82.5° (Epoch: 14 August)

Event Time Altitude Azimuth Distance (km) Brightness Sun altitude
Rises 08:33:54 0° 9° (N) 2,891 8.0 -26.4°
Reaches altitude 10° 08:36:31 10° 23° (NNE) 1,977 7.1 -26.1°
Maximum altitude 08:40:02 23° 77° (ENE) 1,294 5.6 -25.7°
Enters shadow 08:42:28 15° 120° (ESE) 1,648 5.7 -25.5°
